This is the latest recevied weather packets stored in our database for station/object KK4MOR. If no packets are shown the sender has not sent any weather packets the latest 10 day(s).
| Time | Temp. | Humidity | Pressure | Rain* | Wind** | Luminosity | Snow |
|---|---|---|---|---|---|---|---|
| 1777815948 | 9.44° C | 91% | 1020.4 hPa | 0 mm | - | - | - |
| 1777815050 | 8.89° C | 93% | 1020.4 hPa | 0 mm | - | - | - |
| 1777814142 | 7.78° C | 97% | 1020.4 hPa | 0 mm | - | - | - |
| 1777813241 | 7.22° C | 97% | 1020.4 hPa | 0 mm | - | - | - |
| 1777812336 | 6.67° C | 97% | 1020.3 hPa | 0 mm | - | - | - |
| 1777811430 | 5.56° C | 97% | 1020.3 hPa | 0 mm | - | - | - |
| 1777810530 | 4.44° C | 97% | 1020.2 hPa | 0 mm | - | - | - |
| 1777809629 | 3.33° C | 96% | 1020.1 hPa | 0 mm | - | - | - |
| 1777808727 | 3.33° C | 96% | 1019.8 hPa | 0 mm | - | - | - |
| 1777807825 | 2.78° C | 96% | 1019.5 hPa | 0 mm | - | - | - |
| 1777806923 | 3.33° C | 96% | 1019.5 hPa | 0 mm | - | - | - |
| 1777806021 | 3.33° C | 96% | 1019.2 hPa | 0 mm | - | - | - |
| 1777805134 | 3.89° C | 96% | 1019.1 hPa | 0 mm | - | - | - |
| 1777804217 | 3.89° C | 96% | 1019 hPa | 0 mm | - | - | - |
| 1777803315 | 4.44° C | 96% | 1018.8 hPa | 0 mm | - | - | - |
| 1777802412 | 4.44° C | 96% | 1018.6 hPa | 0 mm | - | - | - |
| 1777801512 | 4.44° C | 96% | 1018.5 hPa | 0 mm | - | - | - |
| 1777800611 | 4.44° C | 96% | 1018.5 hPa | 0 mm | - | - | - |
| 1777799709 | 4.44° C | 96% | 1018.4 hPa | 0 mm | - | - | - |
| 1777798820 | 4.44° C | 95% | 1018.5 hPa | 0 mm | - | - | - |
| 1777797908 | 4.44° C | 96% | 1018.3 hPa | 0 mm | - | - | - |
| 1777797004 | 5° C | 95% | 1018.2 hPa | 0 mm | - | - | - |
| 1777796103 | 5° C | 96% | 1018.2 hPa | 0 mm | - | - | - |
| 1777795206 | 5° C | 96% | 1018.1 hPa | 0 mm | - | - | - |
| 1777794301 | 5° C | 95% | 1018.2 hPa | 0 mm | - | - | - |
* Rain latest hour (hover to see other rain measurements)
** Current wind speed in m/s (hover to see current wind gust speed)